Starlink 4629

operational
NORAD ID: 53968 Int'l Des: 2022-125 Owner: SPXS Country: US Constellation: starlink
LEOCIRCULAR

Starlink 4629について

説明を読み込み中...

リアルタイム位置

3D地球を読み込み中...

次回通過

高度履歴

Altitude vs Time

uPlot chart will show altitude changes over time

軌道要素

1 53968U 22125E 25304.78894981 .00001281 00000-0 98548-4 0 9991
2 53968 53.2168 82.6964 0001366 89.0135 271.1014 15.08838146169865
Epoch: Oct 31, 2025 • Age: 14 hours

現在のステータス

高度 540.2 km
速度 7.59 km/s
衛星直下点 3.30°N, 97.36°W
打ち上げ日 Oct 5, 2022
運用期間 3 years
タイプ internet

技術仕様

分類 Payload
質量 305.00 kg
乾燥質量 290.00 kg
総質量 305.00 kg
長さ 0.20 m
直径 2.80 m
スパン 9.00 m
形状 Box + pan
製造者 SPXS
バスタイプ Starlink
フェーズステータス In Orbit
所有者/国 SPXS/US

大規模コンステレーション

Loading constellations...